Columbia, MO

6:49 AM CDT on June 28, 2017 (GMT -0500)
Columbia Regional

Weather History for KCOU - December, 2012

Change the Weather History Date:

Wednesday, December 26, 2012

  Actual Average Record
Temperature  
Mean Temperature 26 °F 30 °F  
Max Temperature 31 °F 39 °F 69 °F (1942)
Min Temperature 20 °F 22 °F -10 °F (1948)
Degree Days  
Heating Degree Days 39 35  
Month to date heating degree days 625 834  
Since 1 July heating degree days 1592 1819  
Cooling Degree Days 0 0  
Month to date cooling degree days 0 0  
Year to date cooling degree days 1896 1249  
Moisture  
Dew Point 17 °F    
Average Humidity 71    
Maximum Humidity 84    
Minimum Humidity 58    
Precipitation  
Precipitation 0.00 in 0.07 in 2.20 in (2015)
Month to date precipitation 1.31 2.10  
Year to date precipitation 30.45 42.28  
Snow  
Snow 0.00 in 0.20 in 4.10 in (1939)
Month to date snowfall 1.2 3.5  
Since 1 July snowfall 1.2 4.4  
Snow Depth 0.00 in    
Sea Level Pressure  
Sea Level Pressure 30.15 in    
Wind  
Wind Speed 15 mph (NNW)    
Max Wind Speed 21 mph    
Max Gust Speed 26 mph    
Visibility 10 miles    
Events      
T = Trace of Precipitation, MM = Missing Value Source: NWS Daily Summary

Daily Weather History Graph

Daily Weather History Graph

Search for Another Location

Airport or City:

Trip Planner

Search our weather history database for the weather conditions in past years. The results will help you decide how hot, cold, wet, or windy it might be!

Date:

Astronomy

Dec. 26, 2012 Rise Set
Actual Time 7:25 AM CST 4:53 PM CST
Civil Twilight 6:56 AM CST 5:23 PM CST
Nautical Twilight 6:22 AM CST 5:57 PM CST
Astronomical Twilight 5:50 AM CST 6:29 PM CST
Moon 3:47 PM CST (12/26) 5:50 AM CST (12/26)
Length of Visible Light 10h 27m
Length of Day
9h 27m
Waxing Gibbous, 97% of the Moon is Illuminated
Dec 26
Waxing Gibbous
Dec 28
Full
Jan 4
Last Quarter
Jan 11
New
Jan 18
First Quarter

Hourly Weather History & Observations

Time (CST) Temp. Windchill Dew Point Humidity Pressure Visibility Wind Dir Wind Speed Gust Speed Precip Events Conditions
12:54 AM 21.2 °F 6.4 °F 15.8 °F 80% 30.08 in 10.0 mi North 18.4 mph - N/A   Overcast
1:54 AM 19.9 °F 5.2 °F 15.1 °F 81% 30.11 in 10.0 mi North 17.3 mph 24.2 mph N/A   Scattered Clouds
2:46 AM 21.2 °F 7.8 °F 15.8 °F 80% 30.07 in 10.0 mi NNW 15.0 mph - N/A   Overcast
2:54 AM 21.0 °F 6.2 °F 15.1 °F 78% 30.10 in 10.0 mi NNW 18.4 mph - N/A   Overcast
3:54 AM 21.0 °F 6.6 °F 15.1 °F 78% 30.10 in 10.0 mi NNW 17.3 mph 24.2 mph N/A   Overcast
4:45 AM 21.2 °F 7.8 °F 15.8 °F 80% 30.07 in 10.0 mi NNW 15.0 mph - N/A   Overcast
4:54 AM 21.0 °F 6.6 °F 15.1 °F 78% 30.10 in 10.0 mi NNW 17.3 mph - N/A   Overcast
5:54 AM 21.2 °F 6.8 °F 15.8 °F 80% 30.08 in 10.0 mi NNW 17.3 mph - N/A   Overcast
6:54 AM 21.0 °F 7.1 °F 15.1 °F 78% 30.13 in 10.0 mi NNW 16.1 mph - N/A   Overcast
7:54 AM 21.0 °F 8.6 °F 15.1 °F 78% 30.13 in 10.0 mi NNW 12.7 mph - N/A   Overcast
8:54 AM 21.9 °F 8.2 °F 15.1 °F 75% 30.15 in 10.0 mi NW 16.1 mph - N/A   Overcast
9:54 AM 24.1 °F 11.5 °F 16.0 °F 71% 30.17 in 10.0 mi North 15.0 mph - N/A   Overcast
10:54 AM 27.0 °F 15.2 °F 17.1 °F 66% 30.16 in 10.0 mi NNW 15.0 mph - N/A   Scattered Clouds
11:54 AM 30.0 °F 19.5 °F 18.0 °F 61% 30.14 in 10.0 mi NNW 13.8 mph 20.7 mph N/A   Scattered Clouds
12:54 PM 30.0 °F 20.0 °F 18.0 °F 61% 30.15 in 10.0 mi NNW 12.7 mph - N/A   Overcast
1:54 PM 28.9 °F 18.6 °F 18.0 °F 64% 30.15 in 10.0 mi NW 12.7 mph - N/A   Overcast
2:54 PM 28.9 °F 18.6 °F 18.0 °F 64% 30.17 in 10.0 mi NW 12.7 mph - N/A   Overcast
3:54 PM 28.0 °F 19.3 °F 18.0 °F 66% 30.18 in 10.0 mi NW 9.2 mph - N/A   Overcast
4:54 PM 27.0 °F 18.7 °F 18.0 °F 69% 30.19 in 10.0 mi NW 8.1 mph - N/A   Overcast
5:54 PM 26.1 °F 18.4 °F 18.0 °F 71% 30.19 in 10.0 mi NW 6.9 mph - N/A   Overcast
6:54 PM 25.0 °F 16.3 °F 18.0 °F 75% 30.21 in 10.0 mi NW 8.1 mph - N/A   Overcast
6:57 PM 24.8 °F 15.3 °F 17.6 °F 74% 30.18 in 10.0 mi NW 9.2 mph - N/A   Overcast
7:54 PM 25.0 °F 14.2 °F 18.0 °F 75% 30.22 in 10.0 mi NNW 11.5 mph - N/A   Overcast
8:54 PM 25.0 °F 17.1 °F 19.0 °F 78% 30.22 in 10.0 mi North 6.9 mph - N/A   Overcast
9:54 PM 25.0 °F 19.3 °F 18.0 °F 75% 30.22 in 10.0 mi NNW 4.6 mph - N/A   Overcast
10:54 PM 25.0 °F 18.1 °F 18.0 °F 75% 30.18 in 10.0 mi ENE 5.8 mph - N/A   Overcast
11:54 PM 25.0 °F - 18.0 °F 75% 30.18 in 10.0 mi Calm Calm - N/A   Overcast